{"data":{"norad_id":63858,"epoch":"2026-05-25T00:06:32.508288Z","epoch_age_seconds":64897,"freshness":"FRESH","line1":"1 63858U 25093Y   26145.00454292  .00008465  00000+0  31667-3 0  9991","line2":"2 63858  43.0034   6.8733 0001415 263.4260  96.6430 15.27590633 59482","mean_motion":15.27590633,"eccentricity":0.0001415,"inclination_deg":43.0034,"raan_deg":6.8733,"arg_perigee_deg":263.426,"mean_anomaly_deg":96.643,"bstar":0.00031667,"rev_number":5948,"period_min":94.266092557272,"perigee_km":482.04640386974,"apogee_km":483.98811052453,"semimajor_km":6861.1542571971,"source":"CELESTRAK","updated_at":"2026-05-25T13:38:20.166045Z"}}